EW9396 Weather Reports


time (UTC)temp
F
wind
direction
speed
knots
gust
knots
rain 1hr
in
rain 24hr
in
rain mn
in
humidity
%
barometer
mb
20260506044540 68 167 1.7 5.2 0.00 0.00 0.00 76 1015.4
20260506043043 68 156 3.5 6.1 0.00 0.00 0.00 76 1015.5
20260506041557 67 137 1.7 5.2 0.00 0.00 0.00 76 1015.6
20260506040052 67 172 0.9 3.5 0.00 0.00 0.00 76 1015.8
20260506034518 67 178 2.6 5.2 0.00 0.00 0.00 76 1015.7
20260506033028 68 179 1.7 4.3 0.00 0.00 0.00 76 1016.0
20260506031528 68 156 3.5 7.0 0.00 0.00 0.00 76 1015.7
20260506030033 68 183 1.7 5.2 0.00 0.00 0.00 76 1016.0
20260506024601 68 166 2.6 6.1 0.00 0.00 0.00 76 1016.0
20260506023000 68 182 2.6 5.2 0.00 0.00 0.00 76 1016.1
20260506021507 68 157 1.7 6.1 0.00 0.00 0.00 76 1016.1
20260506020013 68 192 2.6 7.0 0.00 0.00 0.00 76 1016.0
20260506014547 68 146 2.6 7.0 0.00 0.00 0.00 76 1015.8
20260506013044 68 146 2.6 6.1 0.00 0.00 0.00 76 1015.8
20260506011548 68 198 2.6 7.0 0.00 0.00 0.00 75 1015.5
20260506010052 68 157 3.5 7.0 0.00 0.00 0.00 75 1015.6
20260506004533 68 153 3.5 7.8 0.00 0.00 0.00 75 1015.4
20260506003023 68 158 3.5 7.0 0.00 0.00 0.00 74 1015.3
20260506001527 69 211 3.5 7.0 0.00 0.00 0.00 74 1015.4
20260506000040 69 171 1.7 7.8 0.00 0.00 0.00 74 1015.4
20260505234604 69 209 2.6 7.8 0.00 0.00 0.00 73 1015.5
20260505233003 70 169 4.3 7.8 0.00 0.00 0.00 71 1015.5
20260505231507 71 187 3.5 9.6 0.00 0.00 0.00 71 1015.5
20260505230015 71 196 3.5 9.6 0.00 0.00 0.00 70 1015.7
20260505224543 71 204 3.5 9.6 0.00 0.00 0.00 70 1015.4
20260505223054 72 178 4.3 12.2 0.00 0.00 0.00 69 1015.5
20260505221553 72 216 5.2 10.4 0.00 0.00 0.00 69 1015.6
20260505220055 72 159 3.5 11.3 0.00 0.00 0.00 68 1015.6
20260505214537 72 163 6.1 10.4 0.00 0.00 0.00 68 1015.4
20260505213040 72 163 6.1 11.3 0.00 0.00 0.00 70 1015.3
20260505211530 72 191 6.1 12.2 0.00 0.00 0.00 69 1015.3
20260505210033 73 202 7.0 12.2 0.00 0.00 0.00 67 1015.4
20260505204603 72 186 6.1 11.3 0.00 0.00 0.00 69 1015.5
20260505203004 73 157 7.8 13.0 0.00 0.00 0.00 67 1015.6
20260505201506 73 171 6.1 12.2 0.00 0.00 0.00 67 1015.7
20260505200011 73 154 6.1 13.0 0.00 0.00 0.00 67 1015.8
20260505194543 73 175 7.0 11.3 0.00 0.00 0.00 68 1016.1
20260505193050 73 174 6.1 11.3 0.00 0.00 0.00 69 1016.4
20260505191556 73 126 7.0 11.3 0.00 0.00 0.00 67 1016.6
20260505190111 73 183 4.3 9.6 0.00 0.00 0.00 68 1016.6
20260505184524 73 190 5.2 9.6 0.00 0.00 0.00 68 1016.6
20260505183041 73 190 6.1 11.3 0.00 0.00 0.00 66 1016.6
20260505181529 73 155 4.3 8.7 0.00 0.00 0.00 68 1016.8
20260505180038 73 184 5.2 7.8 0.00 0.00 0.00 65 1016.8
20260505174606 73 142 4.3 8.7 0.00 0.00 0.00 66 1016.8
20260505173003 73 184 5.2 9.6 0.00 0.00 0.00 64 1016.8
20260505171522 74 173 4.3 7.8 0.00 0.00 0.00 65 1016.7
20260505170014 73 132 5.2 9.6 0.00 0.00 0.00 65 1016.8
20260505164540 74 202 3.5 8.7 0.00 0.00 0.00 63 1016.8
20260505163044 74 194 4.3 7.8 0.00 0.00 0.00 62 1017.0
20260505161549 73 247 4.3 10.4 0.00 0.00 0.00 63 1017.2
20260505153028 73 202 3.5 8.7 0.00 0.00 0.00 64 1017.3
20260505151527 73 192 3.5 9.6 0.00 0.00 0.00 63 1017.3
20260505124515 69 185 3.5 7.8 0.00 0.00 0.00 70 1016.9
20260505123021 69 182 2.6 5.2 0.00 0.00 0.00 72 1016.9
20260505121524 67 173 1.7 5.2 0.00 0.00 0.00 75 1016.8
20260505120036 66 197 2.6 4.3 0.00 0.00 0.00 74 1016.8
20260505114601 65 216 0.0 0.0 0.00 0.00 0.00 71 1016.8
20260505113059 61 216 0.0 0.0 0.00 0.00 0.00 73 1016.6
20260505111604 60 215 0.0 0.9 0.00 0.00 0.00 74 1016.5
20260505101546 57 215 0.0 0.0 0.00 0.00 0.00 76 1015.7
20260505100046 57 215 0.0 0.9 0.00 0.00 0.00 76 1015.5
20260505094512 57 216 0.0 0.9 0.00 0.00 0.00 76 1015.3
20260505093017 58 215 0.0 0.0 0.00 0.00 0.00 76 1015.3
20260505091529 59 215 0.0 0.0 0.00 0.00 0.00 76 1015.3
20260505090041 60 216 0.0 0.9 0.00 0.00 0.00 77 1015.3
20260505084558 60 215 0.0 0.0 0.00 0.00 0.00 77 1015.1
20260505083109 62 215 0.0 0.9 0.00 0.00 0.00 77 1015.2
20260505081610 63 215 0.0 0.9 0.00 0.00 0.00 77 1015.1
20260505080004 64 225 0.0 1.7 0.00 0.00 0.00 76 1015.0
20260505074534 65 197 0.9 3.5 0.00 0.00 0.00 76 1014.9
20260505073051 65 228 1.7 5.2 0.00 0.00 0.00 75 1014.9
20260505071543 65 216 2.6 6.1 0.00 0.00 0.00 75 1014.8
20260505070053 65 211 1.7 6.1 0.00 0.00 0.00 75 1015.0
20260505064513 66 211 2.6 6.1 0.00 0.00 0.00 75 1015.0
20260505063017 66 197 2.6 6.1 0.00 0.00 0.00 74 1014.8
20260505061522 66 178 2.6 7.0 0.00 0.00 0.00 74 1015.1
20260505060027 66 194 3.5 8.7 0.00 0.00 0.00 74 1015.2
20260505054558 66 203 3.5 7.8 0.00 0.00 0.00 73 1015.2
20260505053107 66 190 4.3 7.8 0.00 0.00 0.00 73 1015.3
20260505051604 66 190 3.5 7.8 0.00 0.00 0.00 73 1015.3